SITE: BDASn,YEAR: 2006,,,,,,
2006date,time,pzhd (cm),gw temp (C),DWT (cm),WT elev (m),,
01/01/06,0:00,161.7,13.0,204.6,1371.475,,Depth to water table:
01/01/06,0:30,162.4,13.0,203.9,1371.482,,DWT = SCL - CH - h (all values in cm)
01/01/06,1:00,162.5,12.9,203.8,1371.483,,where
01/01/06,1:30,162.2,13.0,204.1,1371.480,,SCL = sensor cable length = 493.3 cm
01/01/06,2:00,161.4,13.0,204.9,1371.472,,CH = casing height of well = 127.0 cm
01/01/06,2:30,161.5,12.9,204.8,1371.473,,h = height of water above sensor (from pzhd column)
01/01/06,3:00,161.5,13.0,204.8,1371.473,,
01/01/06,3:30,161.3,13.0,205.0,1371.471,,WT elevation:
01/01/06,4:00,161.9,12.9,204.4,1371.477,,Sensor elev = 1369.858 m asl
01/01/06,4:30,161.7,13.0,204.6,1371.475,,WT elev = sensor elev + h (from pzhd column)
01/01/06,5:00,161.6,13.0,204.7,1371.474,,
01/01/06,5:30,161.9,12.9,204.4,1371.477,,
01/01/06,6:00,161.0,13.0,205.3,1371.468,,
01/01/06,6:30,161.0,12.9,205.3,1371.468,,Dates with missing data (# 0.5 hr data points): none.
01/01/06,7:00,160.2,12.9,206.1,1371.460,,
01/01/06,7:30,160.9,12.9,205.4,1371.467,,
01/01/06,8:00,160.7,12.9,205.6,1371.465,,
01/01/06,8:30,161.6,12.9,204.7,1371.474,,"Dates w/missing T data: 1/9, 4/2, 5/22, 5/24, 6/22,"
01/01/06,9:00,161.7,12.9,204.6,1371.475,,"7/14, 8/2."
01/01/06,9:30,160.9,12.9,205.4,1371.467,,
01/01/06,10:00,160.1,12.9,206.2,1371.459,,
01/01/06,10:30,160.8,13.0,205.5,1371.466,,
01/01/06,11:00,160.4,13.0,205.9,1371.462,,
01/01/06,11:30,160.3,13.0,206.0,1371.461,,
01/01/06,12:00,161.5,13.0,204.8,1371.473,,
01/01/06,12:30,161.1,12.9,205.2,1371.469,,
01/01/06,13:00,161.5,12.9,204.8,1371.473,,
01/01/06,13:30,161.4,12.9,204.9,1371.472,,
01/01/06,14:00,160.6,12.9,205.7,1371.464,,
01/01/06,14:30,161.7,12.9,204.6,1371.475,,
01/01/06,15:00,160.2,13.0,206.1,1371.460,,
01/01/06,15:30,160.6,12.9,205.7,1371.464,,
01/01/06,16:00,160.6,12.9,205.7,1371.464,,
01/01/06,16:30,161.5,12.9,204.8,1371.473,,
01/01/06,17:00,160.3,12.9,206.0,1371.461,,
01/01/06,17:30,159.7,12.9,206.6,1371.455,,
01/01/06,18:00,160.1,13.0,206.2,1371.459,,
01/01/06,18:30,161.0,12.9,205.3,1371.468,,
01/01/06,19:00,160.5,13.0,205.8,1371.463,,
01/01/06,19:30,160.5,12.9,205.8,1371.463,,
01/01/06,20:00,159.4,12.9,206.9,1371.452,,
01/01/06,20:30,159.6,12.9,206.7,1371.454,,
01/01/06,21:00,160.2,12.9,206.1,1371.460,,
01/01/06,21:30,160.0,12.9,206.3,1371.458,,
01/01/06,22:00,159.4,12.9,206.9,1371.452,,
01/01/06,22:30,159.8,12.9,206.5,1371.456,,
01/01/06,23:00,159.7,12.9,206.6,1371.455,,
01/01/06,23:30,159.4,12.9,206.9,1371.452,,
01/02/06,0:00,159.6,12.9,206.7,1371.454,,
01/02/06,0:30,159.3,12.9,207.0,1371.451,,
01/02/06,1:00,159.0,12.9,207.3,1371.448,,
01/02/06,1:30,159.3,12.9,207.0,1371.451,,
01/02/06,2:00,158.9,12.9,207.4,1371.447,,
01/02/06,2:30,158.8,12.9,207.5,1371.446,,
01/02/06,3:00,158.3,12.9,208.0,1371.441,,
01/02/06,3:30,159.9,12.9,206.4,1371.457,,
01/02/06,4:00,158.5,12.9,207.8,1371.443,,
01/02/06,4:30,158.4,12.9,207.9,1371.442,,
01/02/06,5:00,158.3,12.9,208.0,1371.441,,
01/02/06,5:30,157.9,12.9,208.4,1371.437,,
01/02/06,6:00,158.1,12.9,208.2,1371.439,,
01/02/06,6:30,157.8,12.9,208.5,1371.436,,
01/02/06,7:00,157.5,12.9,208.8,1371.433,,
01/02/06,7:30,157.6,12.9,208.7,1371.434,,
01/02/06,8:00,157.0,12.9,209.3,1371.428,,
01/02/06,8:30,157.1,12.9,209.2,1371.429,,
01/02/06,9:00,157.7,12.9,208.6,1371.435,,
01/02/06,9:30,158.5,12.9,207.8,1371.443,,
01/02/06,10:00,159.4,12.9,206.9,1371.452,,
01/02/06,10:30,158.9,12.9,207.4,1371.447,,
01/02/06,11:00,159.7,12.9,206.6,1371.455,,
01/02/06,11:30,159.4,12.9,206.9,1371.452,,
01/02/06,12:00,159.9,12.9,206.4,1371.457,,
01/02/06,12:30,160.4,12.9,205.9,1371.462,,
01/02/06,13:00,159.6,12.9,206.7,1371.454,,
01/02/06,13:30,160.4,12.9,205.9,1371.462,,
01/02/06,14:00,160.3,12.9,206.0,1371.461,,
01/02/06,14:30,159.9,12.9,206.4,1371.457,,
01/02/06,15:00,160.7,12.9,205.6,1371.465,,
01/02/06,15:30,160.2,12.9,206.1,1371.460,,
01/02/06,16:00,160.7,12.9,205.6,1371.465,,
01/02/06,16:30,161.2,12.9,205.1,1371.470,,
01/02/06,17:00,161.1,12.9,205.2,1371.469,,
01/02/06,17:30,160.9,12.9,205.4,1371.467,,
01/02/06,18:00,160.2,12.9,206.1,1371.460,,
01/02/06,18:30,160.5,12.9,205.8,1371.463,,
01/02/06,19:00,160.6,12.9,205.7,1371.464,,
01/02/06,19:30,160.7,12.9,205.6,1371.465,,
01/02/06,20:00,159.7,12.9,206.6,1371.455,,
01/02/06,20:30,160.0,12.9,206.3,1371.458,,
01/02/06,21:00,159.5,12.9,206.8,1371.453,,
01/02/06,21:30,159.7,12.9,206.6,1371.455,,
01/02/06,22:00,159.9,12.9,206.4,1371.457,,
01/02/06,22:30,159.3,12.9,207.0,1371.451,,
01/02/06,23:00,160.5,12.9,205.8,1371.463,,
01/02/06,23:30,160.8,12.9,205.5,1371.466,,
01/03/06,0:00,160.1,12.9,206.2,1371.459,,
01/03/06,0:30,160.7,12.9,205.6,1371.465,,
01/03/06,1:00,160.0,12.9,206.3,1371.458,,
01/03/06,1:30,159.9,12.9,206.4,1371.457,,
01/03/06,2:00,159.4,12.9,206.9,1371.452,,
01/03/06,2:30,159.9,12.9,206.4,1371.457,,
01/03/06,3:00,159.1,12.9,207.2,1371.449,,
01/03/06,3:30,160.2,12.9,206.1,1371.460,,
01/03/06,4:00,158.6,12.9,207.7,1371.444,,
01/03/06,4:30,159.0,12.9,207.3,1371.448,,
01/03/06,5:00,159.4,12.9,206.9,1371.452,,
01/03/06,5:30,160.0,12.9,206.3,1371.458,,
01/03/06,6:00,159.3,12.9,207.0,1371.451,,
01/03/06,6:30,158.9,12.9,207.4,1371.447,,
01/03/06,7:00,159.5,12.9,206.8,1371.453,,
01/03/06,7:30,159.5,12.9,206.8,1371.453,,
01/03/06,8:00,158.9,12.9,207.4,1371.447,,
01/03/06,8:30,158.7,12.9,207.6,1371.445,,
01/03/06,9:00,158.8,12.9,207.5,1371.446,,
01/03/06,9:30,158.8,12.9,207.5,1371.446,,
01/03/06,10:00,160.0,12.9,206.3,1371.458,,
01/03/06,10:30,159.7,12.9,206.6,1371.455,,
01/03/06,11:00,160.2,12.9,206.1,1371.460,,
01/03/06,11:30,160.5,12.9,205.8,1371.463,,
01/03/06,12:00,160.5,12.9,205.8,1371.463,,
01/03/06,12:30,160.8,12.9,205.5,1371.466,,
01/03/06,13:00,160.1,12.9,206.2,1371.459,,
01/03/06,13:30,161.0,12.9,205.3,1371.468,,
01/03/06,14:00,161.1,12.9,205.2,1371.469,,
01/03/06,14:30,159.9,12.9,206.4,1371.457,,
01/03/06,15:00,159.8,12.9,206.5,1371.456,,
01/03/06,15:30,160.0,12.9,206.3,1371.458,,
01/03/06,16:00,159.7,12.9,206.6,1371.455,,
01/03/06,16:30,160.0,12.9,206.3,1371.458,,
01/03/06,17:00,159.6,12.9,206.7,1371.454,,
01/03/06,17:30,159.4,12.9,206.9,1371.452,,
01/03/06,18:00,158.8,12.9,207.5,1371.446,,
01/03/06,18:30,159.5,12.9,206.8,1371.453,,
01/03/06,19:00,158.9,12.9,207.4,1371.447,,
01/03/06,19:30,159.7,12.9,206.6,1371.455,,
01/03/06,20:00,159.7,12.9,206.6,1371.455,,
01/03/06,20:30,158.8,12.9,207.5,1371.446,,
01/03/06,21:00,159.2,12.9,207.1,1371.450,,
01/03/06,21:30,159.3,12.9,207.0,1371.451,,
01/03/06,22:00,158.8,12.9,207.5,1371.446,,
01/03/06,22:30,158.5,12.9,207.8,1371.443,,
01/03/06,23:00,159.0,12.8,207.3,1371.448,,
01/03/06,23:30,158.6,12.9,207.7,1371.444,,
01/04/06,0:00,158.3,12.9,208.0,1371.441,,
01/04/06,0:30,158.4,12.9,207.9,1371.442,,
01/04/06,1:00,158.5,12.9,207.8,1371.443,,
01/04/06,1:30,158.9,12.9,207.4,1371.447,,
01/04/06,2:00,157.9,12.9,208.4,1371.437,,
01/04/06,2:30,158.2,12.9,208.1,1371.440,,
01/04/06,3:00,158.0,12.9,208.3,1371.438,,
01/04/06,3:30,157.9,12.9,208.4,1371.437,,
01/04/06,4:00,157.7,12.8,208.6,1371.435,,
01/04/06,4:30,157.4,12.9,208.9,1371.432,,
01/04/06,5:00,158.2,12.9,208.1,1371.440,,
01/04/06,5:30,158.3,12.9,208.0,1371.441,,
01/04/06,6:00,158.0,12.9,208.3,1371.438,,
01/04/06,6:30,156.5,12.9,209.8,1371.423,,
01/04/06,7:00,156.3,12.9,210.0,1371.421,,
01/04/06,7:30,156.2,12.8,210.1,1371.420,,
01/04/06,8:00,156.8,12.9,209.5,1371.426,,
01/04/06,8:30,156.1,12.9,210.2,1371.419,,
01/04/06,9:00,156.2,12.9,210.1,1371.420,,
01/04/06,9:30,156.3,12.8,210.0,1371.421,,
01/04/06,10:00,158.6,12.9,207.7,1371.444,,
01/04/06,10:30,159.0,12.8,207.3,1371.448,,
01/04/06,11:00,159.2,12.8,207.1,1371.450,,
01/04/06,11:30,159.1,12.8,207.2,1371.449,,
01/04/06,12:00,160.3,12.8,206.0,1371.461,,
01/04/06,12:30,160.1,12.9,206.2,1371.459,,
01/04/06,13:00,160.3,12.8,206.0,1371.461,,
01/04/06,13:30,159.5,12.9,206.8,1371.453,,
01/04/06,14:00,160.0,12.8,206.3,1371.458,,
01/04/06,14:30,160.6,12.8,205.7,1371.464,,
01/04/06,15:00,160.0,12.9,206.3,1371.458,,
01/04/06,15:30,159.8,12.8,206.5,1371.456,,
01/04/06,16:00,160.0,12.9,206.3,1371.458,,
01/04/06,16:30,160.1,12.8,206.2,1371.459,,
01/04/06,17:00,159.8,12.8,206.5,1371.456,,
01/04/06,17:30,159.6,12.8,206.7,1371.454,,
01/04/06,18:00,159.1,12.8,207.2,1371.449,,
01/04/06,18:30,159.4,12.8,206.9,1371.452,,
01/04/06,19:00,160.0,12.9,206.3,1371.458,,
01/04/06,19:30,158.7,12.8,207.6,1371.445,,
01/04/06,20:00,159.2,12.8,207.1,1371.450,,
01/04/06,20:30,158.5,12.8,207.8,1371.443,,
01/04/06,21:00,158.6,12.8,207.7,1371.444,,
01/04/06,21:30,158.0,12.9,208.3,1371.438,,
01/04/06,22:00,158.3,12.8,208.0,1371.441,,
01/04/06,22:30,158.5,12.8,207.8,1371.443,,
01/04/06,23:00,158.3,12.8,208.0,1371.441,,
01/04/06,23:30,157.8,12.8,208.5,1371.436,,
01/05/06,0:00,158.9,12.8,207.4,1371.447,,
01/05/06,0:30,158.7,12.8,207.6,1371.445,,
01/05/06,1:00,159.0,12.8,207.3,1371.448,,
01/05/06,1:30,158.6,12.8,207.7,1371.444,,
01/05/06,2:00,158.6,12.8,207.7,1371.444,,
01/05/06,2:30,158.4,12.8,207.9,1371.442,,
01/05/06,3:00,159.1,12.8,207.2,1371.449,,
01/05/06,3:30,158.3,12.8,208.0,1371.441,,
01/05/06,4:00,158.3,12.8,208.0,1371.441,,
01/05/06,4:30,157.6,12.8,208.7,1371.434,,
01/05/06,5:00,158.3,12.8,208.0,1371.441,,
01/05/06,5:30,157.8,12.8,208.5,1371.436,,
01/05/06,6:00,158.4,12.8,207.9,1371.442,,
01/05/06,6:30,158.2,12.8,208.1,1371.440,,
01/05/06,7:00,158.5,12.8,207.8,1371.443,,
01/05/06,7:30,157.3,12.8,209.0,1371.431,,
01/05/06,8:00,158.0,12.8,208.3,1371.438,,
01/05/06,8:30,157.2,12.8,209.1,1371.430,,
01/05/06,9:00,157.3,12.8,209.0,1371.431,,
01/05/06,9:30,157.7,12.8,208.6,1371.435,,
01/05/06,10:00,158.8,12.8,207.5,1371.446,,
01/05/06,10:30,158.3,12.8,208.0,1371.441,,
01/05/06,11:00,158.4,12.8,207.9,1371.442,,
01/05/06,11:30,158.5,12.8,207.8,1371.443,,
01/05/06,12:00,159.5,12.8,206.8,1371.453,,
01/05/06,12:30,159.6,12.8,206.7,1371.454,,
01/05/06,13:00,159.2,12.8,207.1,1371.450,,
01/05/06,13:30,160.1,12.8,206.2,1371.459,,
01/05/06,14:00,159.2,12.8,207.1,1371.450,,
01/05/06,14:30,160.0,12.8,206.3,1371.458,,
01/05/06,15:00,160.0,12.8,206.3,1371.458,,
01/05/06,15:30,158.8,12.8,207.5,1371.446,,
01/05/06,16:00,159.0,12.8,207.3,1371.448,,
01/05/06,16:30,159.4,12.8,206.9,1371.452,,
01/05/06,17:00,159.4,12.8,206.9,1371.452,,
01/05/06,17:30,159.4,12.8,206.9,1371.452,,
01/05/06,18:00,159.8,12.8,206.5,1371.456,,
01/05/06,18:30,159.1,12.8,207.2,1371.449,,
01/05/06,19:00,159.1,12.8,207.2,1371.449,,
01/05/06,19:30,158.9,12.8,207.4,1371.447,,
01/05/06,20:00,158.8,12.8,207.5,1371.446,,
01/05/06,20:30,158.9,12.8,207.4,1371.447,,
01/05/06,21:00,158.0,12.8,208.3,1371.438,,
01/05/06,21:30,158.0,12.8,208.3,1371.438,,
01/05/06,22:00,157.8,12.8,208.5,1371.436,,
01/05/06,22:30,158.0,12.8,208.3,1371.438,,
01/05/06,23:00,157.7,12.8,208.6,1371.435,,
01/05/06,23:30,157.6,12.8,208.7,1371.434,,
01/06/06,0:00,158.5,12.8,207.8,1371.443,,
01/06/06,0:30,157.6,12.8,208.7,1371.434,,
01/06/06,1:00,158.1,12.8,208.2,1371.439,,
01/06/06,1:30,157.2,12.8,209.1,1371.430,,
01/06/06,2:00,157.6,12.8,208.7,1371.434,,
01/06/06,2:30,157.8,12.8,208.5,1371.436,,
01/06/06,3:00,156.9,12.8,209.4,1371.427,,
01/06/06,3:30,157.5,12.8,208.8,1371.433,,
01/06/06,4:00,157.5,12.8,208.8,1371.433,,
01/06/06,4:30,156.7,12.8,209.6,1371.425,,
01/06/06,5:00,157.0,12.8,209.3,1371.428,,
01/06/06,5:30,156.6,12.8,209.7,1371.424,,
01/06/06,6:00,156.6,12.8,209.7,1371.424,,
01/06/06,6:30,156.9,12.8,209.4,1371.427,,
01/06/06,7:00,157.4,12.8,208.9,1371.432,,
01/06/06,7:30,156.7,12.8,209.6,1371.425,,
01/06/06,8:00,157.4,12.8,208.9,1371.432,,
01/06/06,8:30,157.2,12.8,209.1,1371.430,,
01/06/06,9:00,157.5,12.8,208.8,1371.433,,
01/06/06,9:30,157.6,12.8,208.7,1371.434,,
01/06/06,10:00,160.1,12.8,206.2,1371.459,,
01/06/06,10:30,160.6,12.8,205.7,1371.464,,
01/06/06,11:00,160.2,12.8,206.1,1371.460,,
01/06/06,11:30,159.9,12.8,206.4,1371.457,,
01/06/06,12:00,159.9,12.8,206.4,1371.457,,
01/06/06,12:30,160.4,12.8,205.9,1371.462,,
01/06/06,13:00,160.8,12.8,205.5,1371.466,,
01/06/06,13:30,160.8,12.8,205.5,1371.466,,
01/06/06,14:00,161.6,12.8,204.7,1371.474,,
01/06/06,14:30,160.3,12.8,206.0,1371.461,,
01/06/06,15:00,160.7,12.8,205.6,1371.465,,
01/06/06,15:30,161.3,12.8,205.0,1371.471,,
01/06/06,16:00,161.7,12.8,204.6,1371.475,,
01/06/06,16:30,161.7,12.8,204.6,1371.475,,
01/06/06,17:00,160.8,12.8,205.5,1371.466,,
01/06/06,17:30,160.8,12.8,205.5,1371.466,,
01/06/06,18:00,161.3,12.8,205.0,1371.471,,
01/06/06,18:30,160.7,12.8,205.6,1371.465,,
01/06/06,19:00,160.6,12.8,205.7,1371.464,,
01/06/06,19:30,160.4,12.8,205.9,1371.462,,
01/06/06,20:00,161.3,12.8,205.0,1371.471,,
01/06/06,20:30,159.3,12.7,207.0,1371.451,,
01/06/06,21:00,159.3,12.8,207.0,1371.451,,
01/06/06,21:30,159.2,12.8,207.1,1371.450,,
01/06/06,22:00,159.1,12.8,207.2,1371.449,,
01/06/06,22:30,159.2,12.8,207.1,1371.450,,
01/06/06,23:00,159.0,12.8,207.3,1371.448,,
01/06/06,23:30,159.2,12.8,207.1,1371.450,,
01/07/06,0:00,159.0,12.8,207.3,1371.448,,
01/07/06,0:30,159.2,12.8,207.1,1371.450,,
01/07/06,1:00,158.6,12.7,207.7,1371.444,,
01/07/06,1:30,158.5,12.8,207.8,1371.443,,
01/07/06,2:00,159.3,12.7,207.0,1371.451,,
01/07/06,2:30,158.6,12.7,207.7,1371.444,,
01/07/06,3:00,158.7,12.7,207.6,1371.445,,
01/07/06,3:30,159.3,12.7,207.0,1371.451,,
01/07/06,4:00,159.9,12.7,206.4,1371.457,,
01/07/06,4:30,158.9,12.7,207.4,1371.447,,
01/07/06,5:00,158.8,12.7,207.5,1371.446,,
01/07/06,5:30,159.7,12.7,206.6,1371.455,,
01/07/06,6:00,158.9,12.7,207.4,1371.447,,
01/07/06,6:30,158.6,12.7,207.7,1371.444,,
01/07/06,7:00,159.0,12.7,207.3,1371.448,,
01/07/06,7:30,158.8,12.7,207.5,1371.446,,
01/07/06,8:00,158.2,12.7,208.1,1371.440,,
01/07/06,8:30,158.8,12.7,207.5,1371.446,,
01/07/06,9:00,159.2,12.7,207.1,1371.450,,
01/07/06,9:30,158.5,12.7,207.8,1371.443,,
01/07/06,10:00,160.7,12.7,205.6,1371.465,,
01/07/06,10:30,161.1,12.7,205.2,1371.469,,
01/07/06,11:00,161.6,12.7,204.7,1371.474,,
01/07/06,11:30,161.5,12.7,204.8,1371.473,,
01/07/06,12:00,162.9,12.7,203.4,1371.487,,
01/07/06,12:30,163.1,12.7,203.2,1371.489,,
01/07/06,13:00,162.5,12.7,203.8,1371.483,,
01/07/06,13:30,162.6,12.7,203.7,1371.484,,
01/07/06,14:00,162.4,12.7,203.9,1371.482,,
01/07/06,14:30,163.3,12.7,203.0,1371.491,,
01/07/06,15:00,163.4,12.7,202.9,1371.492,,
01/07/06,15:30,162.7,12.7,203.6,1371.485,,
01/07/06,16:00,162.7,12.7,203.6,1371.485,,
01/07/06,16:30,162.5,12.7,203.8,1371.483,,
01/07/06,17:00,162.6,12.7,203.7,1371.484,,
01/07/06,17:30,162.8,12.7,203.5,1371.486,,
01/07/06,18:00,163.5,12.7,202.8,1371.493,,
01/07/06,18:30,162.1,12.7,204.2,1371.479,,
01/07/06,19:00,162.4,12.7,203.9,1371.482,,
01/07/06,19:30,162.1,12.7,204.2,1371.479,,
01/07/06,20:00,162.4,12.7,203.9,1371.482,,
01/07/06,20:30,162.0,12.7,204.3,1371.478,,
01/07/06,21:00,161.5,12.7,204.8,1371.473,,
01/07/06,21:30,162.4,12.7,203.9,1371.482,,
01/07/06,22:00,161.8,12.7,204.5,1371.476,,
01/07/06,22:30,161.4,12.7,204.9,1371.472,,
01/07/06,23:00,162.1,12.7,204.2,1371.479,,
01/07/06,23:30,162.0,12.7,204.3,1371.478,,
01/08/06,0:00,161.7,12.7,204.6,1371.475,,
01/08/06,0:30,162.0,12.7,204.3,1371.478,,
01/08/06,1:00,161.8,12.7,204.5,1371.476,,
01/08/06,1:30,162.4,12.7,203.9,1371.482,,
01/08/06,2:00,162.1,12.7,204.2,1371.479,,
01/08/06,2:30,161.1,12.7,205.2,1371.469,,
01/08/06,3:00,161.2,12.7,205.1,1371.470,,
01/08/06,3:30,161.7,12.7,204.6,1371.475,,
01/08/06,4:00,162.7,12.7,203.6,1371.485,,
01/08/06,4:30,161.9,12.7,204.4,1371.477,,
01/08/06,5:00,161.5,12.7,204.8,1371.473,,
01/08/06,5:30,162.8,12.7,203.5,1371.486,,
01/08/06,6:00,161.1,12.7,205.2,1371.469,,
01/08/06,6:30,160.8,12.7,205.5,1371.466,,
01/08/06,7:00,161.4,12.7,204.9,1371.472,,
01/08/06,7:30,160.4,12.7,205.9,1371.462,,
01/08/06,8:00,160.0,12.7,206.3,1371.458,,
01/08/06,8:30,160.7,12.7,205.6,1371.465,,
01/08/06,9:00,160.1,12.7,206.2,1371.459,,
01/08/06,9:30,160.6,12.7,205.7,1371.464,,
01/08/06,10:00,160.5,12.7,205.8,1371.463,,
01/08/06,10:30,160.7,12.7,205.6,1371.465,,
01/08/06,11:00,161.7,12.7,204.6,1371.475,,
01/08/06,11:30,161.5,12.7,204.8,1371.473,,
01/08/06,12:00,160.8,12.7,205.5,1371.466,,
01/08/06,12:30,161.0,12.7,205.3,1371.468,,
01/08/06,13:00,160.9,12.7,205.4,1371.467,,
01/08/06,13:30,160.6,12.7,205.7,1371.464,,
01/08/06,14:00,161.3,12.7,205.0,1371.471,,
01/08/06,14:30,161.0,12.7,205.3,1371.468,,
01/08/06,15:00,160.8,12.7,205.5,1371.466,,
01/08/06,15:30,161.3,12.7,205.0,1371.471,,
01/08/06,16:00,161.1,12.7,205.2,1371.469,,
01/08/06,16:30,161.6,12.7,204.7,1371.474,,
01/08/06,17:00,161.3,12.7,205.0,1371.471,,
01/08/06,17:30,161.1,12.7,205.2,1371.469,,
01/08/06,18:00,161.3,12.7,205.0,1371.471,,
01/08/06,18:30,161.2,12.7,205.1,1371.470,,
01/08/06,19:00,161.6,12.7,204.7,1371.474,,
01/08/06,19:30,160.6,12.7,205.7,1371.464,,
01/08/06,20:00,160.6,12.7,205.7,1371.464,,
01/08/06,20:30,161.3,12.7,205.0,1371.471,,
01/08/06,21:00,160.1,12.7,206.2,1371.459,,
01/08/06,21:30,159.6,12.7,206.7,1371.454,,
01/08/06,22:00,159.5,12.7,206.8,1371.453,,
01/08/06,22:30,159.2,12.7,207.1,1371.450,,
01/08/06,23:00,159.6,12.7,206.7,1371.454,,
01/08/06,23:30,159.4,12.7,206.9,1371.452,,
01/09/06,0:00,159.7,12.7,206.6,1371.455,,
01/09/06,0:30,160.0,12.7,206.3,1371.458,,
01/09/06,1:00,159.0,12.7,207.3,1371.448,,
01/09/06,1:30,159.1,12.7,207.2,1371.449,,
01/09/06,2:00,158.4,12.7,207.9,1371.442,,
01/09/06,2:30,158.5,12.6,207.8,1371.443,,
01/09/06,3:00,158.5,12.7,207.8,1371.443,,
01/09/06,3:30,159.0,12.7,207.3,1371.448,,
01/09/06,4:00,159.0,12.7,207.3,1371.448,,
01/09/06,4:30,160.4,12.7,205.9,1371.462,,
01/09/06,5:00,161.2,12.7,205.1,1371.470,,
01/09/06,5:30,160.4,12.7,205.9,1371.462,,
01/09/06,6:00,160.0,12.6,206.3,1371.458,,
01/09/06,6:30,159.5,12.6,206.8,1371.453,,
01/09/06,7:00,159.3,12.7,207.0,1371.451,,
01/09/06,7:30,159.8,12.6,206.5,1371.456,,
01/09/06,8:00,159.4,12.7,206.9,1371.452,,
01/09/06,8:30,159.8,12.7,206.5,1371.456,,
01/09/06,9:00,159.3,12.7,207.0,1371.451,,
01/09/06,9:30,158.6,12.7,207.7,1371.444,,
01/09/06,10:00,158.7,12.7,207.6,1371.445,,
01/09/06,10:30,158.8,12.7,207.5,1371.446,,
01/09/06,11:00,158.8,12.7,207.5,1371.446,,
01/09/06,11:30,158.4,,207.9,1371.442,,
01/09/06,12:00,158.9,12.6,207.4,1371.447,,
01/09/06,12:30,160.0,12.7,206.3,1371.458,,
01/09/06,13:00,159.8,12.7,206.5,1371.456,,
01/09/06,13:30,159.9,12.7,206.4,1371.457,,
01/09/06,14:00,160.1,12.7,206.2,1371.459,,
01/09/06,14:30,160.2,12.7,206.1,1371.460,,
01/09/06,15:00,160.1,12.7,206.2,1371.459,,
01/09/06,15:30,159.7,12.7,206.6,1371.455,,
01/09/06,16:00,160.1,12.7,206.2,1371.459,,
01/09/06,16:30,160.4,12.7,205.9,1371.462,,
01/09/06,17:00,160.1,12.6,206.2,1371.459,,
01/09/06,17:30,160.2,12.6,206.1,1371.460,,
01/09/06,18:00,159.2,12.6,207.1,1371.450,,
01/09/06,18:30,158.9,12.6,207.4,1371.447,,
01/09/06,19:00,159.0,12.6,207.3,1371.448,,
01/09/06,19:30,158.2,12.6,208.1,1371.440,,
01/09/06,20:00,158.3,12.6,208.0,1371.441,,
01/09/06,20:30,157.9,12.6,208.4,1371.437,,
01/09/06,21:00,157.6,12.6,208.7,1371.434,,
01/09/06,21:30,157.6,12.6,208.7,1371.434,,
01/09/06,22:00,157.4,12.6,208.9,1371.432,,
01/09/06,22:30,157.7,12.6,208.6,1371.435,,
01/09/06,23:00,156.9,12.6,209.4,1371.427,,
01/09/06,23:30,156.0,12.6,210.3,1371.418,,
01/10/06,0:00,157.0,12.6,209.3,1371.428,,
01/10/06,0:30,156.7,12.7,209.6,1371.425,,
01/10/06,1:00,156.7,12.6,209.6,1371.425,,
01/10/06,1:30,156.2,12.6,210.1,1371.420,,
01/10/06,2:00,156.8,12.7,209.5,1371.426,,
01/10/06,2:30,157.3,12.6,209.0,1371.431,,
01/10/06,3:00,156.3,12.6,210.0,1371.421,,
01/10/06,3:30,156.4,12.6,209.9,1371.422,,
01/10/06,4:00,156.2,12.7,210.1,1371.420,,
01/10/06,4:30,156.3,12.7,210.0,1371.421,,
01/10/06,5:00,156.9,12.7,209.4,1371.427,,
01/10/06,5:30,157.6,12.7,208.7,1371.434,,
01/10/06,6:00,156.4,12.7,209.9,1371.422,,
01/10/06,6:30,155.9,12.7,210.4,1371.417,,
01/10/06,7:00,156.1,12.6,210.2,1371.419,,
01/10/06,7:30,156.0,12.6,210.3,1371.418,,
01/10/06,8:00,156.1,12.6,210.2,1371.419,,
01/10/06,8:30,156.5,12.7,209.8,1371.423,,
01/10/06,9:00,156.0,12.7,210.3,1371.418,,
01/10/06,9:30,156.4,12.6,209.9,1371.422,,
01/10/06,10:00,157.3,12.6,209.0,1371.431,,
01/10/06,10:30,158.4,12.6,207.9,1371.442,,
01/10/06,11:00,159.7,12.6,206.6,1371.455,,
01/10/06,11:30,159.6,12.6,206.7,1371.454,,
01/10/06,12:00,159.8,12.6,206.5,1371.456,,
01/10/06,12:30,160.9,12.6,205.4,1371.467,,
01/10/06,13:00,160.7,12.6,205.6,1371.465,,
01/10/06,13:30,161.0,12.6,205.3,1371.468,,
01/10/06,14:00,160.8,12.6,205.5,1371.466,,
01/10/06,14:30,161.6,12.6,204.7,1371.474,,
01/10/06,15:00,161.0,12.6,205.3,1371.468,,
01/10/06,15:30,161.0,12.6,205.3,1371.468,,
01/10/06,16:00,161.1,12.6,205.2,1371.469,,
01/10/06,16:30,160.4,12.6,205.9,1371.462,,
01/10/06,17:00,161.1,12.6,205.2,1371.469,,
01/10/06,17:30,160.0,12.6,206.3,1371.458,,
01/10/06,18:00,160.1,12.6,206.2,1371.459,,
01/10/06,18:30,159.8,12.6,206.5,1371.456,,
01/10/06,19:00,160.1,12.6,206.2,1371.459,,
01/10/06,19:30,160.3,12.6,206.0,1371.461,,
01/10/06,20:00,159.5,12.6,206.8,1371.453,,
01/10/06,20:30,157.6,12.6,208.7,1371.434,,
01/10/06,21:00,157.9,12.7,208.4,1371.437,,
01/10/06,21:30,157.0,12.6,209.3,1371.428,,
01/10/06,22:00,156.8,12.6,209.5,1371.426,,
01/10/06,22:30,157.5,12.6,208.8,1371.433,,
01/10/06,23:00,157.4,12.6,208.9,1371.432,,
01/10/06,23:30,156.9,12.6,209.4,1371.427,,
01/11/06,0:00,156.9,12.6,209.4,1371.427,,
01/11/06,0:30,157.5,12.6,208.8,1371.433,,
01/11/06,1:00,157.7,12.6,208.6,1371.435,,
01/11/06,1:30,157.1,12.6,209.2,1371.429,,
01/11/06,2:00,157.5,12.6,208.8,1371.433,,
01/11/06,2:30,157.1,12.6,209.2,1371.429,,
01/11/06,3:00,156.3,12.6,210.0,1371.421,,
01/11/06,3:30,156.8,12.6,209.5,1371.426,,
01/11/06,4:00,156.4,12.6,209.9,1371.422,,
01/11/06,4:30,156.9,12.6,209.4,1371.427,,
01/11/06,5:00,156.4,12.6,209.9,1371.422,,
01/11/06,5:30,157.2,12.6,209.1,1371.430,,
01/11/06,6:00,156.5,12.6,209.8,1371.423,,
01/11/06,6:30,156.5,12.6,209.8,1371.423,,
01/11/06,7:00,156.2,12.6,210.1,1371.420,,
01/11/06,7:30,156.4,12.6,209.9,1371.422,,
01/11/06,8:00,156.2,12.6,210.1,1371.420,,
01/11/06,8:30,156.2,12.6,210.1,1371.420,,
01/11/06,9:00,156.2,12.6,210.1,1371.420,,
01/11/06,9:30,156.4,12.6,209.9,1371.422,,
01/11/06,10:00,158.1,12.6,208.2,1371.439,,
01/11/06,10:30,159.3,12.6,207.0,1371.451,,
01/11/06,11:00,160.0,12.6,206.3,1371.458,,
01/11/06,11:30,159.5,12.6,206.8,1371.453,,
01/11/06,12:00,160.5,12.6,205.8,1371.463,,
01/11/06,12:30,161.3,12.6,205.0,1371.471,,
01/11/06,13:00,161.1,12.6,205.2,1371.469,,
01/11/06,13:30,161.4,12.6,204.9,1371.472,,
01/11/06,14:00,161.1,12.6,205.2,1371.469,,
01/11/06,14:30,160.4,12.6,205.9,1371.462,,
01/11/06,15:00,160.5,12.6,205.8,1371.463,,
01/11/06,15:30,161.1,12.6,205.2,1371.469,,
01/11/06,16:00,160.8,12.6,205.5,1371.466,,
01/11/06,16:30,161.5,12.6,204.8,1371.473,,
01/11/06,17:00,161.8,12.6,204.5,1371.476,,
01/11/06,17:30,160.9,12.6,205.4,1371.467,,
01/11/06,18:00,160.6,12.6,205.7,1371.464,,
01/11/06,18:30,160.3,12.6,206.0,1371.461,,
01/11/06,19:00,159.7,12.6,206.6,1371.455,,
01/11/06,19:30,160.5,12.6,205.8,1371.463,,
01/11/06,20:00,160.0,12.6,206.3,1371.458,,
01/11/06,20:30,159.7,12.6,206.6,1371.455,,
01/11/06,21:00,160.4,12.6,205.9,1371.462,,
01/11/06,21:30,159.8,12.6,206.5,1371.456,,
01/11/06,22:00,159.3,12.6,207.0,1371.451,,
01/11/06,22:30,159.5,12.6,206.8,1371.453,,
01/11/06,23:00,158.0,12.6,208.3,1371.438,,
01/11/06,23:30,158.2,12.6,208.1,1371.440,,
01/12/06,0:00,158.3,12.6,208.0,1371.441,,
01/12/06,0:30,159.0,12.6,207.3,1371.448,,
01/12/06,1:00,158.1,12.6,208.2,1371.439,,
01/12/06,1:30,158.1,12.6,208.2,1371.439,,
01/12/06,2:00,159.0,12.6,207.3,1371.448,,
01/12/06,2:30,158.0,12.6,208.3,1371.438,,
01/12/06,3:00,158.6,12.6,207.7,1371.444,,
01/12/06,3:30,158.6,12.6,207.7,1371.444,,
01/12/06,4:00,158.0,12.6,208.3,1371.438,,
01/12/06,4:30,158.0,12.6,208.3,1371.438,,
01/12/06,5:00,157.1,12.6,209.2,1371.429,,